Weather History for KAVL - March, 2008

Change the Weather History Date:

Monday, March 10, 2008

  Actual Average Record
Temperature  
Mean Temperature 43 °F 46 °F  
Max Temperature 60 °F 57 °F 76 °F (1974)
Min Temperature 25 °F 34 °F 10 °F (1996)
Degree Days  
Heating Degree Days 22 19  
Month to date heating degree days 207 205  
Since 1 July heating degree days 3190 3422  
Cooling Degree Days 0 0  
Month to date cooling degree days 0 0  
Year to date cooling degree days 0 0  
Moisture  
Dew Point 25 °F    
Average Humidity 59    
Maximum Humidity 92    
Minimum Humidity 26    
Precipitation  
Precipitation 0.00 in 0.12 in 2.22 in (1952)
Month to date precipitation 2.39 1.24  
Year to date precipitation 8.74 8.67  
Snow  
Snow 0.00 in 0.10 in 2.80 in (1975)
Month to date snowfall T 0.7  
Since 1 July snowfall 3.8 8.0  
Snow Depth -    
Sea Level Pressure  
Sea Level Pressure 30.31 in    
Wind  
Wind Speed 3 mph (NNW)    
Max Wind Speed 10 mph    
Max Gust Speed 13 mph    
Visibility 10 miles    
Events      
T = Trace of Precipitation, MM = Missing Value Source: NWS Daily Summary

Daily Weather History Graph

Daily Weather History Graph

Search for Another Location

Airport or City:

Trip Planner

Search our weather history database for the weather conditions in past years. The results will help you decide how hot, cold, wet, or windy it might be!

Date:

Astronomy

Mar. 10, 2008 Rise Set
Actual Time 7:47 AM EDT 7:33 PM EDT
Civil Twilight 7:21 AM EDT 7:59 PM EDT
Nautical Twilight 6:52 AM EDT 8:28 PM EDT
Astronomical Twilight 6:22 AM EDT 8:58 PM EDT
Moon 9:10 AM EDT (3/10) 11:19 PM EDT (3/10)
Length of Visible Light 12h 37m
Length of Day
11h 46m
Waxing Crescent, 11% of the Moon is Illuminated
Mar 10
Waxing Crescent
Mar 14
First Quarter
Mar 21
Full
Mar 29
Last Quarter
Apr 5
New

Hourly Weather History & Observations

Time (EDT) Temp. Windchill Dew Point Humidity Pressure Visibility Wind Dir Wind Speed Gust Speed Precip Events Conditions
12:54 AM 30.0 °F - 23.0 °F 75% 30.38 in 10.0 mi Calm Calm - N/A   Clear
1:54 AM 30.0 °F - 24.1 °F 79% 30.38 in 10.0 mi Calm Calm - N/A   Clear
2:54 AM 28.0 °F - 24.1 °F 85% 30.38 in 10.0 mi Calm Calm - N/A   Clear
3:54 AM 28.0 °F - 23.0 °F 81% 30.37 in 10.0 mi Calm Calm - N/A   Clear
4:54 AM 27.0 °F - 23.0 °F 85% 30.36 in 10.0 mi Calm Calm - N/A   Clear
5:54 AM 26.6 °F - 23.0 °F 86% 30.36 in 10.0 mi Calm Calm - N/A   Clear
6:54 AM 28.0 °F - 24.1 °F 85% 30.39 in 10.0 mi Calm Calm - N/A   Clear
7:54 AM 26.1 °F - 24.1 °F 92% 30.41 in 10.0 mi Calm Calm - N/A   Clear
8:54 AM 30.9 °F - 26.1 °F 82% 30.42 in 10.0 mi Calm Calm - N/A   Clear
9:54 AM 37.0 °F 31.6 °F 27.0 °F 67% 30.41 in 10.0 mi NNW 6.9 mph - N/A   Clear
10:54 AM 43.0 °F 38.8 °F 25.0 °F 49% 30.40 in 10.0 mi North 6.9 mph - N/A   Clear
11:54 AM 50.0 °F - 26.1 °F 39% 30.38 in 10.0 mi NNW 4.6 mph - N/A   Clear
12:54 PM 55.0 °F - 24.1 °F 30% 30.36 in 10.0 mi Calm Calm - N/A   Clear
1:54 PM 55.9 °F - 23.0 °F 28% 30.32 in 10.0 mi East 4.6 mph - N/A   Clear
2:54 PM 57.9 °F - 24.1 °F 27% 30.27 in 10.0 mi Variable 3.5 mph - N/A   Clear
3:54 PM 59.0 °F - 25.0 °F 27% 30.24 in 10.0 mi SW 3.5 mph - N/A   Clear
4:54 PM 60.1 °F - 26.1 °F 27% 30.21 in 10.0 mi Variable 5.8 mph - N/A   Clear
5:54 PM 59.0 °F - 26.1 °F 28% 30.20 in 10.0 mi NE 4.6 mph - N/A   Scattered Clouds
6:54 PM 57.0 °F - 28.9 °F 34% 30.20 in 10.0 mi South 8.1 mph - N/A   Overcast
7:54 PM 55.0 °F - 27.0 °F 34% 30.22 in 10.0 mi WNW 6.9 mph - N/A   Partly Cloudy
8:54 PM 53.1 °F - 24.1 °F 32% 30.22 in 10.0 mi North 3.5 mph - N/A   Scattered Clouds
9:54 PM 46.0 °F 42.5 °F 28.9 °F 51% 30.23 in 10.0 mi NNW 6.9 mph - N/A   Clear
10:54 PM 44.1 °F - 27.0 °F 51% 30.23 in 10.0 mi Calm Calm - N/A   Clear
11:54 PM 41.0 °F - 30.0 °F 65% 30.21 in 10.0 mi Calm Calm - N/A   Clear